KC5DP Weather Reports


time (UTC)temp
C
wind
direction
speed
KPH
gust
KPH
rain 1hr
cm
rain 24hr
cm
rain mn
cm
humidity
%
barometer
mb
20260509203418 19 113 0.0 0.0 0.13 6.07 6.07 99 1010.9
20260509202916 19 31 3.2 3.2 0.48 6.07 6.07 99 1010.4
20260509202412 19 126 1.6 1.6 0.66 6.05 6.05 99 1010.3
20260509201907 19 108 0.0 0.0 0.61 5.99 5.99 99 1010.8
20260509201402 19 125 0.0 0.0 1.37 5.94 5.94 99 1010.9
20260509200859 19 115 0.0 1.6 1.80 5.89 5.89 99 1010.6
20260509200354 19 128 0.0 1.6 1.07 5.74 5.74 99 1011.5
20260509195851 19 112 0.0 0.0 0.30 5.59 5.59 99 1011.8
20260509195351 19 107 0.0 0.0 0.43 5.56 5.56 99 1011.3
20260509194851 19 111 0.0 0.0 0.61 5.54 5.54 99 1011.5
20260509194347 19 74 3.2 4.8 0.61 5.51 5.51 99 1010.6
20260509193844 19 86 1.6 1.6 0.66 5.44 5.44 99 1011.4
20260509193344 19 129 1.6 1.6 0.79 5.41 5.41 99 1011.7
20260509192840 19 95 0.0 1.6 0.79 5.36 5.36 99 1011.6
20260509192336 19 104 3.2 3.2 0.89 5.28 5.28 99 1011.7
20260509191831 19 119 0.0 1.6 0.79 5.21 5.21 99 1011.7
20260509191327 19 62 3.2 3.2 0.48 5.13 5.13 99 1012.1
20260509190824 19 110 0.0 0.0 0.18 5.08 5.08 99 1012.1
20260509190321 19 113 0.0 0.0 0.00 5.05 5.05 99 1012.3
20260509185818 19 120 0.0 0.0 0.13 5.05 5.05 99 1011.8
20260509185314 19 109 0.0 0.0 0.13 5.05 5.05 99 1011.6
20260509184812 19 99 0.0 1.6 0.00 5.03 5.03 99 1011.6
20260509184309 19 79 0.0 0.0 0.00 5.03 5.03 99 1011.9
20260509183806 19 74 0.0 0.0 0.18 5.03 5.03 99 1011.7
20260509183301 19 94 0.0 0.0 0.30 5.03 5.03 99 1012.1
20260509182756 19 99 0.0 0.0 0.13 5.00 5.00 99 1012.0
20260509182254 19 106 0.0 0.0 0.00 4.98 4.98 99 1012.0
20260509181751 18 124 0.0 0.0 0.18 4.98 4.98 99 1012.0
20260509181249 18 101 0.0 0.0 0.18 4.98 4.98 99 1011.9
20260509180746 18 107 0.0 0.0 0.18 4.98 4.98 99 1011.8
20260509180242 18 78 0.0 0.0 0.00 4.95 4.95 99 1011.8
20260509175738 18 102 0.0 0.0 0.00 4.95 4.95 99 1011.8
20260509175235 18 94 1.6 1.6 0.13 4.95 4.95 99 1011.9
20260509174731 18 108 1.6 1.6 0.13 4.95 4.95 99 1012.1
20260509174226 18 106 0.0 0.0 0.00 4.93 4.93 99 1012.1
20260509173723 18 115 0.0 0.0 0.00 4.93 4.93 99 1011.8
20260509173219 18 107 0.0 0.0 0.00 4.93 4.93 99 1011.6
20260509172715 18 109 0.0 0.0 0.00 4.93 4.93 99 1011.6
20260509172211 18 102 0.0 0.0 0.00 4.93 4.93 99 1011.5
20260509171707 18 91 0.0 0.0 0.00 4.93 4.93 99 1011.8
20260509171203 18 87 3.2 4.8 0.00 4.93 4.93 99 1011.8
20260509170700 18 116 0.0 0.0 0.00 4.93 4.93 99 1012.0
20260509170156 18 122 0.0 0.0 0.00 4.93 4.93 99 1011.9
20260509165654 18 109 0.0 0.0 0.00 4.93 4.93 99 1011.8
20260509165150 18 67 0.0 0.0 0.00 4.93 4.93 99 1011.9
20260509164646 18 125 0.0 0.0 0.00 4.93 4.93 99 1012.0
20260509164142 18 96 0.0 0.0 0.00 4.93 4.93 99 1011.8
20260509163640 18 90 1.6 3.2 0.00 4.93 4.93 99 1012.1
20260509163135 18 109 0.0 1.6 0.00 4.93 4.93 99 1012.1
20260509162633 18 115 0.0 0.0 0.18 4.93 4.93 99 1012.0
20260509162129 18 113 0.0 0.0 0.18 4.93 4.93 99 1012.0
20260509161625 18 109 0.0 0.0 0.00 4.90 4.90 99 1012.1
20260509161120 18 90 1.6 1.6 0.00 4.90 4.90 99 1012.2
20260509160616 18 140 1.6 3.2 0.00 4.90 4.90 99 1012.3
20260509160112 18 99 3.2 3.2 0.00 4.90 4.90 99 1012.0
20260509155608 18 97 0.0 1.6 0.00 4.90 4.90 99 1011.8
20260509155105 18 122 3.2 3.2 0.00 4.90 4.90 99 1012.3
20260509154600 18 93 0.0 0.0 0.00 4.90 4.90 99 1012.2
20260509154058 18 81 0.0 0.0 0.00 4.90 4.90 99 1012.4
20260509153555 18 99 3.2 6.4 0.00 4.90 4.90 99 1012.1
20260509153052 18 75 3.2 4.8 0.13 4.90 4.90 99 1012.0
20260509152548 18 91 4.8 4.8 0.30 4.90 4.90 99 1011.8
20260509152045 18 101 6.4 6.4 0.30 4.88 4.88 99 1011.8
20260509151541 18 117 0.0 1.6 0.30 4.88 4.88 99 1011.9
20260509151039 18 110 0.0 1.6 0.30 4.85 4.85 99 1012.0
20260509150536 18 110 0.0 0.0 0.48 4.83 4.83 99 1011.6
20260509150035 18 106 0.0 0.0 0.79 4.80 4.80 99 1011.2
20260509145530 18 116 1.6 3.2 0.97 4.78 4.78 99 1011.5
20260509145025 18 147 1.6 1.6 0.43 4.67 4.67 99 1011.6
20260509144522 18 113 1.6 1.6 0.43 4.62 4.62 99 1011.5
20260509144020 18 116 0.0 0.0 0.61 4.60 4.60 99 1011.2
20260509143517 18 113 0.0 0.0 0.43 4.57 4.57 99 1011.3
20260509143015 18 110 0.0 0.0 0.48 4.50 4.50 99 1011.4
20260509142510 18 89 0.0 0.0 0.30 4.47 4.47 99 1011.7
20260509142005 18 87 4.8 4.8 0.00 4.42 4.42 99 1011.9
20260509141502 18 109 1.6 1.6 0.18 4.42 4.42 99 1011.7
20260509140959 18 112 0.0 0.0 0.18 4.42 4.42 99 1011.2
20260509140455 18 98 0.0 0.0 0.00 4.39 4.39 99 1010.9
20260509135954 18 63 1.6 1.6 0.30 4.39 4.39 99 1011.4
20260509135451 18 119 0.0 0.0 0.43 4.39 4.39 99 1011.4
20260509134948 18 95 0.0 0.0 0.13 4.34 4.34 99 1011.5
20260509134445 18 115 0.0 0.0 0.18 4.32 4.32 99 1011.6
20260509133943 18 110 0.0 0.0 0.30 4.32 4.32 99 1011.7
20260509133439 18 112 0.0 0.0 0.43 4.29 4.29 99 1011.6
20260509132937 18 100 0.0 0.0 0.61 4.27 4.27 99 1011.4
20260509132435 18 103 0.0 0.0 0.66 4.22 4.22 99 1011.9
20260509131932 18 109 0.0 0.0 0.66 4.17 4.17 99 1012.2
20260509131429 18 110 0.0 0.0 0.61 4.11 4.11 99 1012.1
20260509130926 18 91 0.0 0.0 0.61 4.06 4.06 99 1012.0
20260509130421 18 113 0.0 0.0 0.43 4.01 4.01 99 1011.9
20260509125918 18 125 1.6 3.2 0.30 3.96 3.96 99 1011.4
20260509125415 18 97 0.0 0.0 0.61 3.94 3.94 99 1011.0
20260509124911 18 95 1.6 1.6 0.79 3.91 3.91 99 1011.1
20260509124408 18 96 0.0 0.0 0.48 3.84 3.84 99 1011.3
20260509123906 18 98 1.6 1.6 0.61 3.78 3.78 99 1011.4
20260509123403 18 160 1.6 3.2 1.07 3.76 3.76 99 1011.6
20260509122858 18 127 1.6 1.6 1.37 3.71 3.71 99 1011.6
20260509122355 18 113 0.0 0.0 1.98 3.58 3.58 99 1011.4
20260509121852 18 94 0.0 0.0 1.80 3.45 3.45 99 1011.7
20260509121349 18 135 1.6 1.6 2.59 3.25 3.25 99 1011.5
20260509120848 17 107 0.0 0.0 3.66 3.12 3.12 99 1011.0
20260509120345 17 334 3.2 4.8 4.85 2.82 2.82 99 1011.0
20260509115843 17 325 6.4 9.7 10.62 2.51 2.51 99 1011.3
20260509115340 18 291 9.7 14.5 9.30 1.88 1.88 99 1011.0
20260509114837 20 339 6.4 11.3 3.17 0.86 0.86 99 1011.8
20260509114336 20 311 8.0 11.3 0.00 0.33 0.33 99 1011.5
20260509113835 20 35 1.6 3.2 0.00 0.33 0.33 99 1009.5
20260509113331 20 102 0.0 0.0 0.00 0.33 0.33 99 1008.9
20260509112828 20 102 0.0 0.0 0.00 0.33 0.33 99 1009.0
20260509112325 20 112 0.0 0.0 0.00 0.33 0.33 99 1009.0
20260509111822 20 83 1.6 1.6 0.00 0.33 0.33 99 1008.9
20260509111319 20 105 0.0 0.0 0.00 0.33 0.33 99 1008.8
20260509110817 20 104 0.0 0.0 0.00 0.33 0.33 99 1008.8
20260509110313 20 115 0.0 0.0 0.00 0.33 0.33 99 1008.5
20260509105811 20 126 1.6 1.6 0.00 0.33 0.33 99 1008.5
20260509105309 20 62 0.0 0.0 0.00 0.33 0.33 99 1008.4
20260509104805 20 106 0.0 0.0 0.00 0.33 0.33 99 1008.4
20260509104302 20 109 0.0 0.0 0.00 0.33 0.33 99 1008.6
20260509103800 20 112 0.0 0.0 0.00 0.33 0.33 99 1008.8
20260509103257 20 106 0.0 0.0 0.00 0.33 0.33 99 1009.0
20260509102756 20 108 0.0 0.0 0.00 0.33 0.33 99 1009.0
20260509102253 20 111 0.0 0.0 0.00 0.33 0.33 99 1009.1
20260509101749 20 112 0.0 0.0 0.00 0.33 0.33 99 1008.7
20260509101245 20 115 0.0 0.0 0.00 0.33 0.33 99 1008.7
20260509100742 20 110 0.0 0.0 0.00 0.33 0.33 99 1008.7
20260509100240 20 111 0.0 0.0 0.00 0.33 0.33 99 1008.5
20260509095736 20 95 0.0 0.0 0.00 0.33 0.33 99 1008.2
20260509095234 20 100 0.0 1.6 0.00 0.33 0.33 99 1007.7
20260509094731 20 113 0.0 0.0 0.00 0.33 0.33 99 1007.7
20260509094227 20 119 0.0 0.0 0.00 0.33 0.33 99 1007.9
20260509093725 20 122 0.0 0.0 0.00 0.33 0.33 99 1007.9
20260509093222 20 103 0.0 0.0 0.00 0.33 0.33 99 1007.9
20260509092720 20 102 1.6 1.6 0.00 0.33 0.33 99 1008.5
20260509092218 20 103 0.0 0.0 0.00 0.33 0.33 99 1008.2
20260509091716 20 71 1.6 3.2 0.00 0.33 0.33 99 1008.2
20260509091212 20 135 1.6 3.2 0.00 0.33 0.33 99 1008.3
20260509090710 20 134 0.0 1.6 0.00 0.33 0.33 99 1008.3
20260509090207 20 95 0.0 1.6 0.00 0.33 0.33 99 1008.4
20260509085705 20 75 0.0 0.0 0.00 0.33 0.33 99 1008.6
20260509085201 20 105 6.4 9.7 0.00 0.33 0.33 99 1008.9
20260509084658 20 85 0.0 1.6 0.00 0.33 0.33 99 1009.2
20260509084154 20 114 0.0 1.6 0.00 0.33 0.33 99 1009.4
20260509083653 20 106 0.0 0.0 0.00 0.33 0.33 99 1009.3
20260509083148 20 109 0.0 0.0 0.00 0.33 0.33 99 1008.9
20260509082646 20 61 1.6 1.6 0.00 0.33 0.33 99 1009.0
20260509082142 20 107 0.0 0.0 0.00 0.33 0.33 99 1008.9
20260509081639 20 103 3.2 4.8 0.18 0.33 0.33 99 1009.0
20260509081137 20 106 1.6 1.6 0.30 0.33 0.33 99 1009.0
20260509080635 20 116 1.6 3.2 0.48 0.33 0.33 99 1008.9
20260509080132 20 134 3.2 3.2 0.18 0.28 0.28 99 1009.2
20260509075630 20 79 0.0 1.6 0.13 0.25 0.25 99 1009.5
20260509075128 20 132 0.0 0.0 0.13 0.25 0.25 99 1009.7
20260509074624 20 149 0.0 0.0 0.18 0.23 0.23 99 1010.2
20260509074121 20 159 1.6 1.6 0.18 0.23 0.23 99 1010.0
20260509073618 20 136 0.0 3.2 0.13 0.20 0.20 99 1009.8
20260509073114 20 118 0.0 0.0 0.30 0.20 0.20 99 1009.7
20260509072611 20 116 0.0 0.0 0.18 0.18 0.18 99 1010.0
20260509072108 20 114 0.0 0.0 0.18 0.18 0.18 99 1010.3
20260509071604 20 111 0.0 0.0 0.00 0.15 0.15 99 1010.0
20260509071102 20 108 1.6 1.6 0.00 0.15 0.15 99 1009.5
20260509070559 20 218 1.6 3.2 0.00 0.15 0.15 99 1009.5
20260509070055 20 125 0.0 0.0 0.00 0.15 0.15 99 1010.3
20260509065550 20 15 3.2 3.2 0.13 0.15 0.15 99 1009.9
20260509065047 20 81 1.6 1.6 0.71 0.15 0.15 99 1009.7
20260509064544 20 116 0.0 1.6 0.61 0.13 0.13 99 1009.8
20260509064043 20 112 0.0 0.0 0.00 0.03 0.03 99 1010.1
20260509063537 20 110 0.0 0.0 0.00 0.03 0.03 99 1010.4
20260509063035 20 120 0.0 0.0 0.18 0.03 0.03 99 1010.6
20260509062532 20 92 0.0 0.0 0.18 0.03 0.03 99 1010.3
20260509062030 20 111 0.0 0.0 0.00 0.00 0.00 99 1010.1
20260509061526 20 126 1.6 1.6 0.00 0.00 0.00 99 1010.1
20260509061024 20 102 0.0 1.6 0.00 0.00 0.00 99 1010.3
20260509060521 20 114 0.0 0.0 0.00 0.00 0.00 99 1010.8
20260509060017 20 114 0.0 0.0 0.00 0.00 0.00 99 1010.9
20260509055512 20 112 1.6 1.6 0.00 0.00 0.00 99 1010.9
20260509055009 20 111 0.0 0.0 0.00 0.00 0.00 99 1011.4
20260509054505 20 95 0.0 0.0 0.00 0.00 0.00 99 1011.3
20260509054004 20 105 0.0 0.0 0.00 0.00 0.00 99 1011.2
20260509053502 20 111 0.0 0.0 0.00 0.00 0.00 99 1011.6
20260509052958 20 116 0.0 0.0 0.00 0.00 0.00 99 1011.6
20260509052456 20 95 0.0 0.0 0.00 0.00 0.00 99 1011.9
20260509051954 20 114 0.0 0.0 0.00 0.00 0.00 99 1011.8
20260509051451 20 109 0.0 0.0 0.00 0.00 0.00 99 1011.8
20260509050948 20 131 0.0 0.0 0.00 0.00 0.00 99 1012.2
20260509050445 20 63 1.6 1.6 0.18 0.00 0.00 99 1011.5
20260509045941 20 88 0.0 0.0 0.18 9.17 9.17 99 1011.4
20260509045439 20 83 4.8 4.8 0.13 9.14 9.14 99 1011.3
20260509044935 20 86 0.0 0.0 0.13 9.14 9.14 99 1011.1
20260509044434 19 135 0.0 0.0 0.18 9.12 9.12 99 1011.2
20260509043931 19 147 1.6 1.6 0.30 9.12 9.12 99 1010.6
20260509043426 19 117 1.6 1.6 0.30 9.09 9.09 99 1010.8
20260509042922 18 98 1.6 1.6 0.18 9.07 9.07 99 1011.3
20260509042419 19 119 1.6 1.6 0.30 9.07 9.07 99 1011.8
20260509041915 19 97 0.0 0.0 0.13 9.04 9.04 99 1011.8
20260509041412 19 106 0.0 0.0 0.18 9.02 9.02 99 1012.1
20260509040910 18 103 0.0 0.0 0.18 9.02 9.02 99 1011.7
20260509040408 18 116 0.0 0.0 0.00 8.99 8.99 99 1011.4
20260509035905 18 125 0.0 1.6 0.00 8.99 8.99 99 1011.0
20260509035402 18 112 0.0 0.0 0.00 8.99 8.99 99 1011.2
20260509034858 18 103 0.0 0.0 0.00 8.99 8.99 99 1011.5
20260509034355 18 120 0.0 0.0 0.00 8.99 8.99 99 1011.7
20260509033852 18 100 0.0 0.0 0.00 8.99 8.99 99 1011.8
20260509033350 18 98 0.0 0.0 0.00 8.99 8.99 99 1011.6
20260509032846 18 100 0.0 0.0 0.00 8.99 8.99 99 1011.5
20260509032343 18 91 0.0 0.0 0.00 8.99 8.99 99 1011.5
20260509031842 18 102 0.0 0.0 0.00 8.99 8.99 99 1011.7
20260509031338 18 90 0.0 0.0 0.00 8.99 8.99 99 1011.4
20260509030836 18 108 0.0 0.0 0.00 8.99 8.99 99 1011.2
20260509030334 18 111 0.0 0.0 0.00 8.99 8.99 99 1011.3
20260509025831 18 100 0.0 0.0 0.00 8.99 8.99 99 1011.2
20260509025326 18 97 0.0 0.0 0.00 8.99 8.99 99 1011.1
20260509024821 18 111 0.0 0.0 0.00 8.99 8.99 99 1010.9
20260509024318 18 108 0.0 0.0 0.00 8.99 8.99 99 1011.0
20260509023815 18 114 0.0 0.0 0.00 8.99 8.99 99 1010.7
20260509023312 18 115 0.0 0.0 0.00 8.99 8.99 99 1010.6
20260509022809 18 109 0.0 0.0 0.00 8.99 8.99 99 1010.3
20260509022307 18 111 0.0 0.0 0.00 8.99 8.99 99 1010.8
20260509021803 18 109 0.0 0.0 0.00 8.99 8.99 99 1010.8
20260509021300 18 106 0.0 0.0 0.00 8.99 8.99 99 1010.7
20260509020758 18 100 0.0 0.0 0.00 8.99 8.99 99 1010.4
20260509020255 18 100 0.0 0.0 0.00 8.99 8.99 99 1010.6
20260509015753 18 112 0.0 0.0 0.00 8.99 8.99 99 1010.2
20260509015251 18 108 0.0 0.0 0.00 8.99 8.99 99 1010.5
20260509014747 18 108 0.0 0.0 0.00 8.99 8.99 99 1010.5
20260509014244 18 90 0.0 0.0 0.00 8.99 8.99 99 1010.6
20260509013741 18 107 0.0 0.0 0.00 8.99 8.99 99 1010.4
20260509013236 18 130 1.6 1.6 0.00 8.99 8.99 99 1010.6
20260509012733 18 108 0.0 0.0 0.00 8.99 8.99 99 1010.5
20260509012230 18 114 0.0 0.0 0.00 8.99 8.99 99 1010.7
20260509011727 18 112 0.0 0.0 0.00 8.99 8.99 99 1011.0
20260509011225 18 111 0.0 0.0 0.00 8.99 8.99 99 1010.6
20260509010723 18 77 1.6 1.6 0.00 8.99 8.99 99 1010.3
20260509010219 18 106 0.0 0.0 0.00 8.99 8.99 99 1010.4
20260509005717 18 49 0.0 1.6 0.13 8.99 8.99 99 1010.0
20260509005214 18 114 0.0 0.0 0.13 8.99 8.99 99 1010.1
20260509004714 18 117 0.0 0.0 0.00 8.97 8.97 99 1010.3
20260509004212 18 133 1.6 3.2 0.00 8.97 8.97 99 1009.7
20260509003710 18 97 0.0 0.0 0.00 8.97 8.97 99 1009.6
20260509003207 18 95 0.0 0.0 0.00 8.97 8.97 99 1010.0
20260509002704 19 120 0.0 0.0 0.00 8.97 8.97 99 1010.3
20260509002201 19 110 0.0 0.0 0.00 8.97 8.97 99 1010.2
20260509001659 19 83 1.6 1.6 0.00 8.97 8.97 99 1010.5
20260509001155 19 80 0.0 1.6 0.00 8.97 8.97 99 1010.7
20260509000653 19 115 0.0 1.6 0.00 8.97 8.97 99 1010.5
20260509000150 19 93 3.2 4.8 0.00 8.97 8.97 99 1010.8
20260508235647 19 95 1.6 1.6 0.18 8.97 8.97 99 1010.8
20260508235143 19 102 0.0 0.0 0.18 8.97 8.97 99 1010.9
20260508234641 19 90 0.0 3.2 0.30 8.97 8.97 99 1010.6
20260508234137 19 90 3.2 4.8 0.30 8.94 8.94 99 1010.7
20260508233637 19 73 1.6 3.2 0.18 8.92 8.92 99 1010.9
20260508233134 19 79 0.0 0.0 0.18 8.92 8.92 99 1011.2
20260508232631 18 43 3.2 4.8 0.13 8.89 8.89 99 1011.4
20260508232128 18 104 0.0 0.0 0.13 8.89 8.89 99 1011.5
20260508231625 18 117 0.0 0.0 0.00 8.86 8.86 99 1011.4
20260508231122 18 84 0.0 0.0 0.00 8.86 8.86 99 1011.1
20260508230618 18 96 0.0 0.0 0.18 8.86 8.86 99 1011.3
20260508230115 18 101 0.0 0.0 0.18 8.86 8.86 99 1011.4
20260508225613 18 99 0.0 0.0 0.00 8.84 8.84 99 1011.1
20260508225109 18 115 0.0 0.0 0.00 8.84 8.84 99 1011.1
20260508224607 18 112 0.0 0.0 0.00 8.84 8.84 99 1011.1
20260508224104 18 113 0.0 0.0 0.00 8.84 8.84 99 1011.0
20260508223602 18 100 0.0 0.0 0.00 8.84 8.84 99 1010.9
20260508223059 18 109 0.0 0.0 0.18 8.84 8.84 99 1010.8
20260508222556 18 103 0.0 0.0 0.30 8.84 8.84 99 1010.6
20260508222053 18 106 0.0 0.0 0.43 8.81 8.81 99 1010.7
20260508221549 18 120 0.0 0.0 0.61 8.79 8.79 99 1010.8
20260508221045 18 123 1.6 1.6 0.61 8.74 8.74 99 1010.5
20260508220542 18 109 1.6 1.6 0.61 8.69 8.69 99 1010.7
20260508220038 18 85 0.0 1.6 0.66 8.64 8.64 99 1011.0
20260508215535 18 103 0.0 0.0 0.66 8.59 8.59 99 1011.2
20260508215032 18 114 0.0 0.0 0.43 8.53 8.53 99 1011.3
20260508214529 18 115 0.0 0.0 0.61 8.51 8.51 99 1011.5
20260508214026 18 121 0.0 0.0 0.61 8.46 8.46 99 1011.2
20260508213523 18 105 0.0 0.0 0.48 8.41 8.41 99 1011.2
20260508213019 18 95 0.0 0.0 0.61 8.36 8.36 99 1011.4
20260508212515 18 100 0.0 0.0 0.66 8.31 8.31 99 1011.3
20260508212012 18 86 4.8 4.8 0.79 8.26 8.26 99 1011.2
20260508211508 18 100 3.2 3.2 0.71 8.20 8.20 99 1011.4
20260508211004 18 154 0.0 0.0 0.48 8.13 8.13 99 1011.5
20260508210501 18 176 3.2 4.8 0.30 8.08 8.08 99 1011.0
20260508205957 18 103 0.0 1.6 0.43 8.05 8.05 99 1010.8
20260508205454 18 132 1.6 1.6 0.61 8.03 8.03 99 1011.0
20260508204951 18 111 3.2 3.2 0.48 7.98 7.98 99 1011.1
20260508204448 18 97 3.2 3.2 0.48 7.95 7.95 99 1011.7
20260508203943 18 103 0.0 0.0 0.66 7.92 7.92 99 1012.1